Regional Weather Roundup
Issued by NWS

Home | Current Version | Previous Version | Text Only | Print | Product List | Glossary On
Versions: 1 2 3 4 5 6 7 8 9 10 11 12 13 14 15 16 17 18 19 20 21 22 23 24 25 26 27 28 29 30 31 32 33 34 35 36 37 38 39 40 41 42 43 44 45 46 47 48 49 50
000
ASUS43 KOAX 011210
RWRNE

WEATHER ROUNDUP FOR NEBRASKA
NATIONAL WEATHER SERVICE OMAHA NE
700 AM CDT TUE SEP 01 2015

NOTES: SATELLITE DATA IS BEING USED TO AUGMENT CLOUD COVER ABOVE
       12000 FEET.
       "FAIR" INDICATES FEW OR NO CLOUDS BELOW 12,000 FEET WITH NO
       SIGNIFICANT WEATHER AND/OR OBSTRUCTIONS TO VISIBILITY.

  * THESE STATIONS DO NOT REPORT WEATHER SUCH AS RAIN...SNOW OR FOG.

NEZ001>004-019>022-054>056-011300-
NEBRASKA PANHANDLE

CITY           SKY/WX    TMP DP  RH WIND       PRES   REMARKS
SCOTTSBLUFF    PTCLDY    56  53  90 CALM      29.98F
6HR MIN TEMP:  55; 6HR MAX TEMP:  62;

ALLIANCE       PTCLDY    54  50  86 S3        29.97R
6HR MIN TEMP:  54; 6HR MAX TEMP:  65;

CHADRON        CLEAR     61  49  64 SW10      29.92S
6HR MIN TEMP:  56; 6HR MAX TEMP:  68;

KIMBALL        CLEAR     55  51  87 W7        30.04S
SIDNEY         CLEAR     58  50  75 NW8       30.02S
6HR MIN TEMP:  56; 6HR MAX TEMP:  64;

$$

NEZ057>060-069>072-079>082-011300-
SOUTHWEST NEBRASKA

CITY           SKY/WX    TMP DP  RH WIND       PRES   REMARKS
NORTH PLATTE   CLOUDY    68  62  81 CALM      29.92S
6HR MIN TEMP:  67; 6HR MAX TEMP:  74; 6HR PCP:  0.01;

IMPERIAL       PTCLDY    60  57  89 NE5       29.98R
6HR MIN TEMP:  60; 6HR MAX TEMP:  70; 6HR PCP: TRACE;

LEXINGTON      CLOUDY    68  60  74 S7        29.92R
MCCOOK         MOCLDY    66  63  90 W6        29.94R
6HR MIN TEMP:  65; 6HR MAX TEMP:  81; 6HR PCP: TRACE;

OGALLALA       PTCLDY    59  57  94 W6        29.97R
$$

NEZ005>010-023>029-035>040-094-011300-
NORTH CENTRAL NEBRASKA

CITY           SKY/WX    TMP DP  RH WIND       PRES   REMARKS
VALENTINE      CLOUDY    61  59  93 CALM      29.91R
6HR MIN TEMP:  59; 6HR MAX TEMP:  63;

AINSWORTH      LGT RAIN  66  65  97 S8        29.94R
BROKEN BOW     CLOUDY    67  64  90 CALM      29.91S FOG
6HR MIN TEMP:  66; 6HR MAX TEMP:  74; 6HR PCP: TRACE;

O`NEILL        CLOUDY    69  67  94 S5        29.89R
ORD            CLOUDY    65  63  93 SE5       29.88F
6HR MIN TEMP:  65; 6HR MAX TEMP:  70;

THEDFORD       CLOUDY    67  65  94 CALM      29.95S FOG
$$

NEZ041-046>049-061>064-073>077-083>087-011300-
SOUTH CENTRAL NEBRASKA

CITY           SKY/WX    TMP DP  RH WIND       PRES   REMARKS
GRAND ISLAND   MOCLDY    70  58  65 S12       29.91S
6HR MIN TEMP:  67; 6HR MAX TEMP:  71;

AURORA         PTCLDY    66  63  89 S8        29.92S
HASTINGS       MOCLDY    67  58  72 S7        29.93R
6HR MIN TEMP:  66; 6HR MAX TEMP:  72;

HEBRON         PTCLDY    68  60  76 S5        29.95R
HOLDREGE       CLOUDY    70  55  58 S8        29.90F
KEARNEY *      CLOUDY    72  54  53 S14       29.91S
YORK           MOCLDY    64  63  94 S7        29.93S
$$

NEZ011>018-030>034-042>045-011300-
NORTHEAST NEBRASKA

CITY           SKY/WX    TMP DP  RH WIND       PRES   REMARKS
NORFOLK        PTCLDY    68  64  87 S8        29.89F
6HR MIN TEMP:  67; 6HR MAX TEMP:  71;

ALBION         MOCLDY    65  62  88 SE7       29.90F
BLAIR          CLEAR     68  64  88 S7        29.94R
COLUMBUS *     MOCLDY    68  59  73 S3        29.92S
FREMONT        PTCLDY    70  65  84 SE5       29.93S
TEKAMAH        PTCLDY    67  65  93 SE7       29.91S
6HR MIN TEMP:  65; 6HR MAX TEMP:  68;

WAYNE          PTCLDY    66  64  94 S6        29.90S
$$

NEZ050>053-065>068-078-088>093-011300-
SOUTHEAST NEBRASKA

CITY           SKY/WX    TMP DP  RH WIND       PRES   REMARKS
LINCOLN        PTCLDY    69  65  86 S8        29.94R
6HR MIN TEMP:  69; 6HR MAX TEMP:  73;

OMAHA EPPLEY   PTCLDY    71  68  90 S9        29.94R
6HR MIN TEMP:  69; 6HR MAX TEMP:  74;

BEATRICE       PTCLDY    69  65  88 S7        29.96R
FALLS CITY     CLEAR     70  67  90 S6        29.97R
6HR MIN TEMP:  70; 6HR MAX TEMP:  74;

NEBRASKA CITY  CLEAR     70  67  92 S10       29.96R
PLATTSMOUTH    CLEAR     69  65  87 SE7       29.96R
$$

NEZ044-045-051>053-067-011300-
OMAHA AREA

CITY           SKY/WX    TMP DP  RH WIND       PRES   REMARKS
OMAHA EPPLEY   PTCLDY    71  68  90 S9        29.94R
6HR MIN TEMP:  69; 6HR MAX TEMP:  74;

BLAIR          CLEAR     68  64  88 S7        29.94R
FREMONT        PTCLDY    70  65  84 SE5       29.93S
MILLARD        CLEAR     67  65  93 SE6       29.94R
OFFUTT AFB     CLEAR     65  64  97 E5        29.94R
PLATTSMOUTH    CLEAR     69  65  87 SE7       29.96R
WAHOO          FAIR      64  63  95 CALM      29.93R
$$




USA.gov is the U.S. government's official web portal to all federal, state and local government web resources and services.